| time (UTC) | temp F | wind direction | speed MPH | gust MPH | rain 1hr in | rain 24hr in | rain mn in | humidity % | barometer mb |
| 20260510063039 | 68 | 289 | 1.0 | 5.0 | 0.00 | 0.00 | 0.00 | 10 | 1004.8 |
| 20260510061531 | 69 | 285 | 1.0 | 4.0 | 0.00 | 0.00 | 0.00 | 10 | 1004.7 |
| 20260510060033 | 70 | 271 | 1.0 | 5.0 | 0.00 | 0.00 | 0.00 | 10 | 1004.6 |
| 20260510054530 | 69 | 265 | 2.0 | 4.0 | 0.00 | 0.00 | 0.00 | 10 | 1004.6 |
| 20260510053025 | 68 | 257 | 0.0 | 3.0 | 0.00 | 0.00 | 0.00 | 10 | 1004.7 |
| 20260510051523 | 68 | 274 | 0.0 | 4.0 | 0.00 | 0.00 | 0.00 | 10 | 1004.8 |
| 20260510050021 | 68 | 258 | 1.0 | 4.0 | 0.00 | 0.00 | 0.00 | 9 | 1004.6 |
| 20260510044519 | 68 | 271 | 0.0 | 3.0 | 0.00 | 0.00 | 0.00 | 9 | 1004.4 |
| 20260510043018 | 68 | 269 | 0.0 | 2.0 | 0.00 | 0.00 | 0.00 | 9 | 1004.4 |
| 20260510041515 | 68 | 244 | 1.0 | 3.0 | 0.00 | 0.00 | 0.00 | 9 | 1004.3 |
| 20260510040013 | 69 | 261 | 0.0 | 5.0 | 0.00 | 0.00 | 0.00 | 8 | 1004.0 |
| 20260510034512 | 70 | 262 | 1.0 | 4.0 | 0.00 | 0.00 | 0.00 | 8 | 1003.8 |
| 20260510033010 | 70 | 248 | 0.0 | 2.0 | 0.00 | 0.00 | 0.00 | 8 | 1003.5 |
| 20260510031509 | 71 | 231 | 0.0 | 3.0 | 0.00 | 0.00 | 0.00 | 7 | 1003.3 |
| 20260510030005 | 72 | 232 | 1.0 | 3.0 | 0.00 | 0.00 | 0.00 | 7 | 1003.0 |
| 20260510024504 | 74 | 262 | 1.0 | 7.0 | 0.00 | 0.00 | 0.00 | 7 | 1003.0 |
| 20260510023001 | 75 | 253 | 2.0 | 6.0 | 0.00 | 0.00 | 0.00 | 6 | 1002.8 |
| 20260510021559 | 77 | 259 | 2.0 | 7.0 | 0.00 | 0.00 | 0.00 | 6 | 1002.6 |
| 20260510020056 | 78 | 273 | 3.0 | 10.0 | 0.00 | 0.00 | 0.00 | 6 | 1002.6 |
| 20260510014605 | 80 | 249 | 3.0 | 10.0 | 0.00 | 0.00 | 0.00 | 5 | 1002.3 |
| 20260510013050 | 81 | 269 | 6.0 | 11.0 | 0.00 | 0.00 | 0.00 | 5 | 1002.3 |
| 20260510011552 | 82 | 231 | 6.0 | 11.0 | 0.00 | 0.00 | 0.00 | 5 | 1002.1 |
| 20260510010058 | 84 | 269 | 4.0 | 9.0 | 0.00 | 0.00 | 0.00 | 5 | 1002.0 |
| 20260510004544 | 84 | 217 | 5.0 | 12.0 | 0.00 | 0.00 | 0.00 | 5 | 1002.2 |
| 20260510003054 | 84 | 236 | 3.0 | 12.0 | 0.00 | 0.00 | 0.00 | 5 | 1002.2 |
| 20260510001543 | 84 | 299 | 6.0 | 14.0 | 0.00 | 0.00 | 0.00 | 5 | 1002.3 |
| 20260510000048 | 85 | 240 | 3.0 | 10.0 | 0.00 | 0.00 | 0.00 | 5 | 1002.2 |
| 20260509234545 | 85 | 262 | 6.0 | 15.0 | 0.00 | 0.00 | 0.00 | 5 | 1002.3 |
| 20260509233033 | 85 | 275 | 7.0 | 16.0 | 0.00 | 0.00 | 0.00 | 5 | 1002.4 |
| 20260509231531 | 85 | 271 | 6.0 | 17.0 | 0.00 | 0.00 | 0.00 | 5 | 1002.5 |
| 20260509230029 | 85 | 232 | 6.0 | 15.0 | 0.00 | 0.00 | 0.00 | 5 | 1002.5 |
| 20260509224527 | 85 | 225 | 7.0 | 14.0 | 0.00 | 0.00 | 0.00 | 4 | 1002.5 |
| 20260509223124 | 86 | 217 | 5.0 | 16.0 | 0.00 | 0.00 | 0.00 | 4 | 1002.8 |
| 20260509221520 | 86 | 261 | 6.0 | 15.0 | 0.00 | 0.00 | 0.00 | 4 | 1003.0 |
| 20260509220020 | 87 | 272 | 4.0 | 13.0 | 0.00 | 0.00 | 0.00 | 4 | 1003.1 |
| 20260509214522 | 87 | 230 | 5.0 | 12.0 | 0.00 | 0.00 | 0.00 | 4 | 1003.3 |
| 20260509213013 | 87 | 256 | 6.0 | 14.0 | 0.00 | 0.00 | 0.00 | 4 | 1003.4 |
| 20260509211509 | 87 | 286 | 5.0 | 11.0 | 0.00 | 0.00 | 0.00 | 4 | 1003.8 |
| 20260509210007 | 87 | 226 | 7.0 | 15.0 | 0.00 | 0.00 | 0.00 | 4 | 1004.0 |
| 20260509204511 | 87 | 325 | 7.0 | 15.0 | 0.00 | 0.00 | 0.00 | 4 | 1004.0 |
| 20260509203006 | 86 | 239 | 6.0 | 15.0 | 0.00 | 0.00 | 0.00 | 4 | 1004.2 |
| 20260509201603 | 88 | 300 | 5.0 | 16.0 | 0.00 | 0.00 | 0.00 | 5 | 1004.3 |
| 20260509200059 | 87 | 161 | 5.0 | 12.0 | 0.00 | 0.00 | 0.00 | 5 | 1004.1 |
| 20260509194557 | 87 | 240 | 4.0 | 11.0 | 0.00 | 0.00 | 0.00 | 5 | 1004.3 |
| 20260509193056 | 86 | 249 | 6.0 | 15.0 | 0.00 | 0.00 | 0.00 | 5 | 1004.3 |
| 20260509191554 | 87 | 207 | 5.0 | 15.0 | 0.00 | 0.00 | 0.00 | 5 | 1004.5 |
| 20260509190050 | 87 | 303 | 5.0 | 14.0 | 0.00 | 0.00 | 0.00 | 5 | 1004.4 |
| 20260509184544 | 86 | 303 | 7.0 | 13.0 | 0.00 | 0.00 | 0.00 | 5 | 1004.5 |
| 20260509183041 | 86 | 259 | 3.0 | 10.0 | 0.00 | 0.00 | 0.00 | 6 | 1004.5 |
| 20260509181537 | 85 | 60 | 2.0 | 6.0 | 0.00 | 0.00 | 0.00 | 6 | 1004.8 |
| 20260509180034 | 86 | 47 | 0.0 | 7.0 | 0.00 | 0.00 | 0.00 | 6 | 1005.0 |
| 20260509174530 | 84 | 101 | 1.0 | 6.0 | 0.00 | 0.00 | 0.00 | 7 | 1005.1 |
| 20260509173028 | 83 | 34 | 2.0 | 6.0 | 0.00 | 0.00 | 0.00 | 8 | 1005.3 |
| 20260509171525 | 82 | 94 | 1.0 | 8.0 | 0.00 | 0.00 | 0.00 | 8 | 1005.5 |
| 20260509170022 | 82 | 325 | 2.0 | 8.0 | 0.00 | 0.00 | 0.00 | 9 | 1005.5 |
| 20260509164517 | 82 | 321 | 2.0 | 5.0 | 0.00 | 0.00 | 0.00 | 9 | 1005.5 |
| 20260509163020 | 81 | 32 | 2.0 | 5.0 | 0.00 | 0.00 | 0.00 | 10 | 1005.5 |
| 20260509161512 | 80 | 242 | 1.0 | 4.0 | 0.00 | 0.00 | 0.00 | 10 | 1005.6 |
| 20260509160008 | 79 | 34 | 3.0 | 7.0 | 0.00 | 0.00 | 0.00 | 10 | 1005.6 |
| 20260509154503 | 80 | 104 | 0.0 | 6.0 | 0.00 | 0.00 | 0.00 | 11 | 1005.6 |
| 20260509153058 | 78 | 233 | 0.0 | 1.0 | 0.00 | 0.00 | 0.00 | 12 | 1005.7 |
| 20260509151554 | 77 | 326 | 0.0 | 2.0 | 0.00 | 0.00 | 0.00 | 12 | 1005.8 |
| 20260509150051 | 76 | 266 | 0.0 | 2.0 | 0.00 | 0.00 | 0.00 | 13 | 1006.0 |
| 20260509144602 | 77 | 152 | 0.0 | 1.0 | 0.00 | 0.00 | 0.00 | 13 | 1006.0 |
| 20260509143044 | 74 | 62 | 0.0 | 3.0 | 0.00 | 0.00 | 0.00 | 14 | 1005.8 |
| 20260509141541 | 75 | 56 | 0.0 | 1.0 | 0.00 | 0.00 | 0.00 | 15 | 1005.9 |
| 20260509140054 | 74 | 56 | 0.0 | 0.0 | 0.00 | 0.00 | 0.00 | 15 | 1005.9 |
| 20260509134530 | 73 | 279 | 0.0 | 0.0 | 0.00 | 0.00 | 0.00 | 16 | 1005.9 |
| 20260509133026 | 69 | 279 | 0.0 | 0.0 | 0.00 | 0.00 | 0.00 | 17 | 1005.9 |
| 20260509131530 | 64 | 279 | 0.0 | 0.0 | 0.00 | 0.00 | 0.00 | 16 | 1005.9 |
| 20260509130024 | 61 | 279 | 0.0 | 0.0 | 0.00 | 0.00 | 0.00 | 16 | 1005.6 |
| 20260509124518 | 59 | 279 | 0.0 | 0.0 | 0.00 | 0.00 | 0.00 | 15 | 1005.5 |
| 20260509123006 | 60 | 279 | 0.0 | 1.0 | 0.00 | 0.00 | 0.00 | 15 | 1005.4 |
| 20260509121616 | 60 | 279 | 0.0 | 1.0 | 0.00 | 0.00 | 0.00 | 15 | 1005.3 |
| 20260509120054 | 63 | 279 | 0.0 | 1.0 | 0.00 | 0.00 | 0.00 | 15 | 1005.2 |
| 20260509114550 | 63 | 280 | 0.0 | 2.0 | 0.00 | 0.00 | 0.00 | 14 | 1005.1 |
| 20260509113055 | 64 | 287 | 0.0 | 1.0 | 0.00 | 0.00 | 0.00 | 14 | 1005.2 |
| 20260509111544 | 64 | 266 | 0.0 | 1.0 | 0.00 | 0.00 | 0.00 | 14 | 1005.2 |
| 20260509110040 | 65 | 249 | 0.0 | 3.0 | 0.00 | 0.00 | 0.00 | 14 | 1005.2 |
| 20260509104536 | 66 | 268 | 1.0 | 5.0 | 0.00 | 0.00 | 0.00 | 13 | 1005.2 |
| 20260509103133 | 65 | 243 | 1.0 | 4.0 | 0.00 | 0.00 | 0.00 | 13 | 1005.2 |
| 20260509101532 | 65 | 257 | 2.0 | 5.0 | 0.00 | 0.00 | 0.00 | 13 | 1005.3 |
| 20260509100032 | 65 | 234 | 2.0 | 4.0 | 0.00 | 0.00 | 0.00 | 13 | 1005.4 |
| 20260509094527 | 66 | 275 | 1.0 | 4.0 | 0.00 | 0.00 | 0.00 | 13 | 1005.4 |
| 20260509093125 | 66 | 269 | 1.0 | 5.0 | 0.00 | 0.00 | 0.00 | 13 | 1005.4 |
| 20260509091520 | 66 | 257 | 1.0 | 7.0 | 0.00 | 0.00 | 0.00 | 13 | 1005.3 |
| 20260509090017 | 66 | 269 | 1.0 | 5.0 | 0.00 | 0.00 | 0.00 | 12 | 1005.2 |
| 20260509084516 | 67 | 274 | 1.0 | 6.0 | 0.00 | 0.00 | 0.00 | 12 | 1005.4 |
| 20260509083011 | 67 | 274 | 2.0 | 6.0 | 0.00 | 0.00 | 0.00 | 12 | 1005.6 |
| 20260509081508 | 67 | 255 | 1.0 | 7.0 | 0.00 | 0.00 | 0.00 | 12 | 1005.6 |
| 20260509080005 | 66 | 283 | 1.0 | 4.0 | 0.00 | 0.00 | 0.00 | 12 | 1005.6 |
| 20260509074503 | 67 | 275 | 1.0 | 5.0 | 0.00 | 0.00 | 0.00 | 12 | 1005.7 |
| 20260509073100 | 67 | 299 | 1.0 | 4.0 | 0.00 | 0.00 | 0.00 | 12 | 1005.8 |
| 20260509071557 | 67 | 264 | 1.0 | 4.0 | 0.00 | 0.00 | 0.00 | 12 | 1005.7 |
| 20260509070054 | 67 | 268 | 1.0 | 5.0 | 0.00 | 0.00 | 0.00 | 12 | 1005.8 |
| 20260509064553 | 67 | 273 | 1.0 | 5.0 | 0.00 | 0.00 | 0.00 | 12 | 1005.8 |